Wakefield, VA

12:47 AM EST on December 08, 2019 (GMT -0500)
Wakefield Municipal

Weather History for KAKQ - November, 2019

Change the Weather History Date:

Sunday, November 17, 2019

  Actual Average (KJGG) Record (KJGG)
Temperature  
Mean Temperature 44 °F -  
Max Temperature 48 °F 61 °F 80 °F (1964)
Min Temperature 41 °F 36 °F 23 °F (1967)
Degree Days  
Heating Degree Days 20    
Moisture  
Dew Point 36 °F    
Average Humidity 74    
Maximum Humidity 89    
Minimum Humidity 66    
Precipitation  
Precipitation 0.00 in - - ()
Sea Level Pressure  
Sea Level Pressure 30.06 in    
Wind  
Wind Speed 8 mph (North)    
Max Wind Speed 10 mph    
Max Gust Speed 20 mph    
Visibility 9 miles    
Events      
Averages and records for this station are not official NWS values.
T = Trace of Precipitation, MM = Missing Value Source: NWS Daily Summary

Daily Weather History Graph

Daily Weather History Graph

Search for Another Location

Airport or City:

Astronomy

Nov. 17, 2019 Rise Set
Actual Time 6:48 AM EST 4:57 PM EST
Civil Twilight 6:20 AM EST 5:24 PM EST
Nautical Twilight 5:49 AM EST 5:56 PM EST
Astronomical Twilight 5:18 AM EST 6:27 PM EST
Moon 9:33 PM EST (11/17) 11:30 AM EST (11/17)
Length of Visible Light 11h 04m
Length of Day
10h 08m
Waning Gibbous, 73% of the Moon is Illuminated
Nov 17
Waning Gibbous
Nov 19
Last Quarter
Nov 26
New
Dec 4
First Quarter
Dec 12
Full

Hourly Weather History & Observations

Time (EST) Temp. Windchill Dew Point Humidity Pressure Visibility Wind Dir Wind Speed Gust Speed Precip Events Conditions
12:54 AM 42.1 °F 37.7 °F 33.1 °F 70% 30.17 in 10.0 mi Variable 6.9 mph 18.4 mph N/A   Overcast
1:54 AM 41.0 °F 35.2 °F 33.1 °F 73% 30.16 in 10.0 mi North 9.2 mph - N/A   Overcast
2:54 AM 41.0 °F 35.2 °F 33.1 °F 73% 30.14 in 10.0 mi North 9.2 mph - N/A   Overcast
3:54 AM 41.0 °F 37.1 °F 34.0 °F 76% 30.14 in 10.0 mi Variable 5.8 mph - N/A   Overcast
4:54 AM 42.1 °F 36.6 °F 33.1 °F 70% 30.13 in 10.0 mi North 9.2 mph - N/A   Overcast
5:54 AM 42.1 °F 36.6 °F 33.1 °F 70% 30.12 in 10.0 mi North 9.2 mph - N/A   Overcast
6:54 AM 42.1 °F 37.1 °F 34.0 °F 73% 30.13 in 10.0 mi NNE 8.1 mph 17.3 mph N/A   Overcast
7:54 AM 43.0 °F 38.2 °F 34.0 °F 71% 30.13 in 10.0 mi North 8.1 mph 17.3 mph N/A   Overcast
8:54 AM 43.0 °F 37.7 °F 34.0 °F 71% 30.14 in 10.0 mi North 9.2 mph - N/A   Overcast
9:54 AM 43.0 °F 38.2 °F 35.1 °F 74% 30.14 in 10.0 mi North 8.1 mph 18.4 mph N/A   Overcast
10:54 AM 45.0 °F 39.7 °F 36.0 °F 71% 30.12 in 10.0 mi NNE 10.4 mph 19.6 mph N/A   Overcast
11:54 AM 46.9 °F - 37.0 °F 68% 30.08 in 10.0 mi North 8.1 mph 18.4 mph N/A   Overcast
12:54 PM 48.0 °F - 37.9 °F 68% 30.05 in 10.0 mi NNE 8.1 mph - N/A   Overcast
1:17 PM - - - N/A% - - North - - N/A   Unknown
1:54 PM 48.0 °F - 37.9 °F 68% 30.03 in 10.0 mi NNE 8.1 mph 18.4 mph N/A   Overcast
2:54 PM 48.0 °F - 37.0 °F 66% 30.02 in 10.0 mi North 5.8 mph - N/A   Overcast
3:54 PM 46.9 °F - 37.0 °F 68% 30.01 in 10.0 mi Variable 5.8 mph - N/A   Overcast
4:54 PM 46.0 °F 41.9 °F 37.0 °F 71% 30.00 in 10.0 mi North 8.1 mph - N/A   Overcast
5:54 PM 46.0 °F 41.9 °F 37.9 °F 73% 30.01 in 10.0 mi North 8.1 mph - N/A   Overcast
6:54 PM 45.0 °F 41.8 °F 39.0 °F 80% 30.00 in 10.0 mi North 5.8 mph - N/A   Overcast
7:05 PM 45.0 °F 41.8 °F 39.0 °F 80% 29.99 in 10.0 mi Variable 5.8 mph - N/A   Overcast
7:54 PM 45.0 °F 41.2 °F 39.0 °F 80% 29.99 in 10.0 mi Variable 6.9 mph - N/A   Overcast
8:54 PM 44.1 °F 40.8 °F 39.9 °F 85% 29.97 in 7.0 mi Variable 5.8 mph - N/A   Overcast
10:54 PM 43.0 °F 39.5 °F 39.9 °F 89% 29.94 in 6.0 mi North 5.8 mph - N/A   Overcast
11:17 PM - - - N/A% - - North - - N/A   Unknown
11:32 PM 43.0 °F 38.8 °F 39.0 °F 86% 29.93 in 5.0 mi Variable 6.9 mph - N/A   Overcast
11:54 PM 43.0 °F 39.5 °F 39.0 °F 86% 29.94 in 5.0 mi Variable 5.8 mph - N/A   Overcast